Location: Irma
(52.9170°N, 111.2330°W)
Time: 16:49:27
(UTC-06:00)

Amateur Radio Satellites - All Passes

Search period start: 25 July 2017 16:19
Search period end: 26 July 2017 16:19
Location: Irma, 52.9170°N, 111.2330°W

Satellite Date Start Highest point End Downlink Frequencies (MHz)
Time Altitude Azimuth
VELOX 1 25 Jul 16:20:11 16:21:38 11° 310° (NW) 16:23:05 145.980
50 SAT 25 Jul 16:21:38 16:22:35 11° 304° (NW) 16:23:32 437.505
BEESAT 2 25 Jul 16:21:48 16:25:28 32° 329° (NNW) 16:29:10 435.950
DX 1 25 Jul 16:22:21 16:25:47 23° 301° (WNW) 16:29:13 434.975-435.025
DOVE 4 25 Jul 16:22:31 16:26:09 20° 54° (NE) 16:29:53 437.250
SO-50 25 Jul 16:22:48 16:26:25 24° 243° (WSW) 16:30:02 436.795
AO-7 25 Jul 16:24:32 16:32:44 57° 257° (WSW) 16:41:00 .
O/OREOS (USA 219) 25 Jul 16:25:54 16:30:20 68° 116° (ESE) 16:34:48 437.305
PCSat 25 Jul 16:27:25 16:29:36 12° 257° (WSW) 16:31:47 145.827
RS-15 25 Jul 16:29:27 16:41:02 52° 115° (ESE) 16:52:41 29.354- 29.394
MOZHAYETS 4 25 Jul 16:31:17 16:35:38 42° 98° (E) 16:39:59
AO-85 25 Jul 16:51:54 16:54:37 18° 346° (NNW) 16:57:22 145.980
XW-2B 25 Jul 16:54:52 16:55:44 11° 54° (NE) 16:56:36 145.730 - 145.750
UKube-1 25 Jul 17:04:35 17:07:01 15° 306° (NW) 17:09:28 .
HO-68 25 Jul 17:05:02 17:09:27 18° 39° (NE) 17:13:51 435.675
CUBESAT XI-V 25 Jul 17:07:30 17:11:19 24° 92° (E) 17:15:07 437.345
KKS-1 25 Jul 17:09:42 17:12:04 14° 87° (E) 17:14:25 437.445
XW-2C 25 Jul 17:10:45 17:12:55 15° 58° (ENE) 17:15:06 145.795 - 145.815
BEESAT 25 Jul 17:12:26 17:17:12 73° 289° (WNW) 17:21:56 436.000
NUDT-PHONESAT 25 Jul 17:16:41 17:18:28 13° 57° (ENE) 17:20:14 437.300
BEESAT 3 25 Jul 17:20:42 17:23:15 16° 352° (N) 17:25:48 437.485
NO-84 25 Jul 17:20:53 17:24:31 67° 204° (SSW) 17:28:27 435.350 FM
ITUPSAT 1 25 Jul 17:26:07 17:30:49 58° 292° (WNW) 17:35:29 437.325
KAITUO 1B 25 Jul 17:31:01 17:33:33 18° 61° (ENE) 17:36:06 145.475/437.950
LilacSat-2 25 Jul 17:33:40 17:36:46 24° 64° (ENE) 17:39:52 437.200
STARS 25 Jul 17:38:26 17:40:05 12° 85° (E) 17:41:43 437.465
ITAMSAT 1 25 Jul 17:40:04 17:42:54 15° 274° (W) 17:45:45 435.822/435.867
XW-2F 25 Jul 17:46:48 17:50:03 29° 66° (ENE) 17:53:20 145.980 - 146.000
CUTE-I 25 Jul 17:49:02 17:54:02 41° 63° (ENE) 17:59:03 437.470
DOVE 4 25 Jul 17:58:09 18:03:09 87° 256° (WSW) 18:08:26 437.250
BEESAT 2 25 Jul 18:01:44 18:04:21 16° 352° (N) 18:06:59 435.950
YUBILEINY 25 Jul 18:05:41 18:12:22 25° 76° (ENE) 18:19:04 435.215
O/OREOS (USA 219) 25 Jul 18:06:34 18:10:12 24° 317° (NW) 18:13:51 437.305
MOZHAYETS 4 25 Jul 18:08:42 18:12:41 30° 297° (WNW) 18:16:39
XW-2D 25 Jul 18:15:28 18:19:10 61° 72° (ENE) 18:22:53 145.860 - 145.880
AO-7 25 Jul 18:23:33 18:27:31 14° 280° (W) 18:31:29 .
XW-2B 25 Jul 18:25:30 18:29:14 75° 75° (ENE) 18:33:00 145.730 - 145.750
AO-85 25 Jul 18:33:47 18:36:26 17° 11° (NNE) 18:39:09 145.980
RS-15 25 Jul 18:40:54 18:53:16 73° 322° (NW) 19:05:37 29.354- 29.394
XW-2C 25 Jul 18:42:55 18:46:39 71° 257° (WSW) 18:50:25 145.795 - 145.815
CUBESAT XI-V 25 Jul 18:44:26 18:48:59 54° 291° (WNW) 18:53:33 437.345
KKS-1 25 Jul 18:44:45 18:49:17 88° 287° (WNW) 18:53:46 437.445
NUDT-PHONESAT 25 Jul 18:48:09 18:51:50 81° 256° (WSW) 18:55:32 437.300
HO-68 25 Jul 18:48:49 18:55:45 54° 62° (ENE) 19:02:41 435.675
BEESAT 25 Jul 18:51:37 18:54:13 15° 309° (NW) 18:56:47 436.000
NO-84 25 Jul 18:58:49 19:01:35 19° 223° (SW) 19:04:29 435.350 FM
BEESAT 3 25 Jul 18:59:20 19:02:14 18° 16° (NNE) 19:05:07 437.485
KAITUO 1B 25 Jul 19:03:37 19:07:13 53° 259° (W) 19:10:53 145.475/437.950
CUBEBUG 2 25 Jul 19:03:48 19:07:41 27° 62° (ENE) 19:11:29 437.445
ITUPSAT 1 25 Jul 19:05:52 19:07:43 12° 312° (NW) 19:09:33 437.325
LilacSat-2 25 Jul 19:07:23 19:10:55 37° 263° (W) 19:14:27 437.200
STARS 25 Jul 19:12:43 19:17:11 81° 104° (ESE) 19:21:35 437.465
CUTE 1.7 + AOD 2 25 Jul 19:17:05 19:21:10 52° 70° (ENE) 19:25:16 437.475
AO-73 25 Jul 19:18:19 19:20:28 14° 55° (NE) 19:22:37 145.935
XW-2F 25 Jul 19:20:52 19:24:10 30° 264° (W) 19:27:31 145.980 - 146.000
SEEDS 25 Jul 19:28:08 19:32:06 44° 68° (ENE) 19:36:05 437.485
CUTE-I 25 Jul 19:29:05 19:34:07 40° 263° (W) 19:39:12 437.470
DOVE 4 25 Jul 19:38:38 19:41:40 16° 276° (W) 19:44:46 437.250
BEESAT 2 25 Jul 19:40:36 19:43:31 18° 16° (NNE) 19:46:26 435.950
XW-2D 25 Jul 19:51:31 19:53:44 15° 271° (W) 19:55:59 145.860 - 145.880
XW-2A 25 Jul 19:55:34 19:58:57 82° 72° (ENE) 20:02:19 145.665 - 145.685
YUBILEINY 25 Jul 19:59:09 20:08:01 88° 98° (E) 20:16:54 435.215
UWE-3 25 Jul 19:59:48 20:04:10 49° 69° (ENE) 20:08:27 435.000/436.395/437.385
XW-2B 25 Jul 20:02:17 20:03:56 12° 273° (W) 20:05:35 145.730 - 145.750
AAUSAT CUBESAT 2 25 Jul 20:09:31 20:13:33 56° 71° (ENE) 20:17:37 437.432
STRAND 1 25 Jul 20:11:37 20:16:02 28° 93° (E) 20:20:24 437.568
ZACube-1 25 Jul 20:12:15 20:16:20 39° 67° (ENE) 20:20:22 437.345
AO-85 25 Jul 20:14:02 20:17:51 37° 35° (NE) 20:21:50 145.980
KKS-1 25 Jul 20:22:30 20:25:13 16° 306° (NW) 20:27:55 437.445
CUBESAT XI-V 25 Jul 20:24:09 20:25:24 11° 311° (NW) 20:26:39 437.345
BEESAT 3 25 Jul 20:36:44 20:40:41 48° 39° (NE) 20:44:34 437.485
HO-68 25 Jul 20:36:56 20:43:41 42° 263° (W) 20:50:28 435.675
Oscar 11 25 Jul 20:37:01 20:41:08 46° 68° (ENE) 20:45:16 .
CUBEBUG 2 25 Jul 20:39:33 20:44:06 50° 261° (W) 20:48:33 437.445
STARS 25 Jul 20:50:04 20:52:59 18° 305° (NW) 20:55:54 437.465
AO-73 25 Jul 20:51:40 20:56:03 79° 75° (ENE) 21:00:22 145.935
CUTE 1.7 + AOD 2 25 Jul 20:54:06 20:57:18 21° 269° (W) 21:00:31 437.475
RS-15 25 Jul 20:56:05 21:08:00 49° 353° (N) 21:19:39 29.354- 29.394
SEEDS 25 Jul 21:04:36 21:07:59 24° 268° (W) 21:11:24 437.485
DELFI C3 25 Jul 21:05:57 21:09:15 26° 63° (ENE) 21:12:36 145.870
BEESAT 2 25 Jul 21:18:12 21:22:10 47° 38° (NE) 21:26:06 435.950
EO-88 25 Jul 21:22:08 21:25:04 23° 64° (ENE) 21:28:01 145.990 - 145.960
ISS 25 Jul 21:23:47 21:25:14 12° 141° (SE) 21:26:40 437.550
Tancredo 1 25 Jul 21:34:10 21:36:37 24° 152° (SSE) 21:39:05 437.200
UWE-3 25 Jul 21:37:08 21:40:51 25° 268° (W) 21:44:31 435.000/436.395/437.385
FO-29 25 Jul 21:44:53 21:50:26 23° 83° (E) 21:55:31 435.910
AAUSAT CUBESAT 2 25 Jul 21:46:25 21:49:21 19° 270° (W) 21:52:20 437.432
ZACube-1 25 Jul 21:48:50 21:52:43 30° 266° (W) 21:56:32 437.345
STRAND 1 25 Jul 21:50:31 21:55:30 53° 293° (WNW) 22:00:27 437.568
ESTCUBE 1 25 Jul 21:53:54 21:54:53 11° 49° (NE) 21:55:52 437.505/2401.250
AO-85 25 Jul 21:54:23 21:58:21 45° 234° (SW) 22:02:31 145.980
YUBILEINY 25 Jul 21:58:37 22:06:04 29° 304° (NW) 22:13:35 435.215
nSIGHT-1 25 Jul 22:03:48 22:06:23 22° 149° (SSE) 22:08:59 .
Oscar 11 25 Jul 22:13:58 22:17:30 24° 268° (W) 22:21:02 .
BEESAT 3 25 Jul 22:14:35 22:18:08 30° 239° (WSW) 22:21:36 437.485
AO-73 25 Jul 22:30:20 22:32:50 15° 272° (W) 22:35:18 145.935
PRISM 25 Jul 22:30:40 22:33:16 16° 89° (E) 22:35:50 437.425
DELFI C3 25 Jul 22:40:12 22:43:54 38° 263° (W) 22:47:39 145.870
UNISAT 6 25 Jul 22:47:47 22:51:33 27° 93° (E) 22:55:13 437.425
EO-88 25 Jul 22:55:13 22:58:36 37° 262° (W) 23:02:01 145.990 - 145.960
BEESAT 2 25 Jul 22:56:10 22:59:50 32° 239° (WSW) 23:03:27 435.950
LO-87 25 Jul 22:56:31 22:59:54 37° 68° (ENE) 23:03:18 145.935 - 145.965
ISS 25 Jul 22:57:59 23:01:04 41° 160° (SSE) 23:04:10 437.550
Tancredo 1 25 Jul 23:08:47 23:11:42 62° 171° (S) 23:14:37 437.200
RS-15 25 Jul 23:11:03 23:23:15 59° 26° (NNE) 23:34:56 29.354- 29.394
O/OREOS (USA 219) 25 Jul 23:12:07 23:14:46 15° 34° (NE) 23:17:23 437.305
SPROUT 25 Jul 23:18:13 23:20:57 17° 56° (NE) 23:23:40 437.525
M-CUBED/EXP-1 PRIME 25 Jul 23:22:00 23:25:24 20° 96° (E) 23:28:51 437.505
ESTCUBE 1 25 Jul 23:26:23 23:30:45 54° 69° (ENE) 23:35:09 437.505/2401.250
FO-29 25 Jul 23:29:07 23:36:35 89° 277° (W) 23:43:07 435.910
TIGRISAT 25 Jul 23:31:30 23:35:50 64° 102° (ESE) 23:40:05 435.000
STRAND 1 25 Jul 23:31:38 23:33:37 12° 314° (NW) 23:35:36 437.568
nSIGHT-1 25 Jul 23:39:13 23:42:24 59° 168° (SSE) 23:45:35 .
50 SAT 25 Jul 23:54:04 23:54:53 11° 56° (NE) 23:55:44 437.505
PRISM 26 Jul 00:04:50 00:09:00 71° 289° (WNW) 00:13:10 437.425
YUBILEINY 26 Jul 00:06:02 00:06:56 10° 335° (NNW) 00:07:50 435.215
VELOX 1 26 Jul 00:08:23 00:12:29 38° 65° (ENE) 00:16:37 145.980
DX 1 26 Jul 00:12:21 00:15:17 18° 56° (NE) 00:18:14 434.975-435.025
UNISAT 6 26 Jul 00:24:18 00:28:25 41° 293° (WNW) 00:32:26 437.425
LO-87 26 Jul 00:30:32 00:33:27 22° 267° (W) 00:36:23 145.935 - 145.965
DUCHIFAT 1 26 Jul 00:33:01 00:35:59 18° 90° (E) 00:38:54 145.980
ISS 26 Jul 00:34:07 00:37:22 72° 180° (S) 00:40:37 437.550
POLYITAN 1 26 Jul 00:36:36 00:40:02 24° 93° (E) 00:43:27 437.675
Tancredo 1 26 Jul 00:44:05 00:46:59 59° 192° (SSW) 00:49:54 437.200
QB50P2 26 Jul 00:49:28 00:53:19 33° 96° (E) 00:57:09 145.880/145.840
O/OREOS (USA 219) 26 Jul 00:50:40 00:55:07 60° 56° (ENE) 00:59:35 437.305
SPROUT 26 Jul 00:52:00 00:56:19 82° 257° (WSW) 01:00:39 437.525
UKube-1 26 Jul 00:52:11 00:55:47 26° 61° (ENE) 00:59:24 .
M-CUBED/EXP-1 PRIME 26 Jul 00:55:38 01:00:11 70° 295° (WNW) 01:04:50 437.505
AIST 2D 26 Jul 00:56:44 01:00:14 81° 102° (ESE) 01:03:44 435.315
BUGSAT 1 26 Jul 00:59:37 01:00:38 11° 85° (E) 01:01:37 437.445
NANOSAT C BR1 26 Jul 01:00:32 01:04:26 35° 97° (E) 01:08:18 145.865
EO-79 26 Jul 01:01:05 01:05:05 39° 98° (E) 01:09:02 145.935-145.965
ESTCUBE 1 26 Jul 01:04:22 01:07:53 22° 269° (W) 01:11:26 437.505/2401.250
TIGRISAT 26 Jul 01:08:57 01:12:08 20° 302° (WNW) 01:15:16 435.000
FO-29 26 Jul 01:14:46 01:20:41 27° 311° (NW) 01:26:09 435.910
nSIGHT-1 26 Jul 01:15:29 01:18:42 66° 188° (S) 01:21:55 .
50 SAT 26 Jul 01:23:37 01:27:02 88° 80° (E) 01:30:29 437.505
RS-15 26 Jul 01:24:20 01:36:28 73° 236° (SW) 01:47:59 29.354- 29.394
ITUPSAT 1 26 Jul 01:27:17 01:28:47 11° 47° (NE) 01:30:17 437.325
PRISM 26 Jul 01:41:54 01:43:34 12° 308° (NW) 01:45:13 437.425
VELOX 1 26 Jul 01:45:02 01:49:00 32° 265° (W) 01:53:01 145.980
DX 1 26 Jul 01:46:35 01:50:57 78° 255° (WSW) 01:55:23 434.975-435.025
MOZHAYETS 4 26 Jul 02:04:12 02:06:48 15° 53° (NE) 02:09:23
DUCHIFAT 1 26 Jul 02:07:53 02:12:02 60° 289° (WNW) 02:16:08 145.980
ISS 26 Jul 02:10:33 02:13:42 45° 199° (SSW) 02:16:50 437.550
Oscar 19 26 Jul 02:10:35 02:14:54 26° 92° (E) 02:19:13 437.125/150
POLYITAN 1 26 Jul 02:12:00 02:16:03 46° 292° (WNW) 02:20:03 437.675
Tancredo 1 26 Jul 02:19:41 02:22:02 22° 210° (SSW) 02:24:23 437.200
QB50P2 26 Jul 02:25:19 02:29:07 33° 295° (WNW) 02:32:53 145.880/145.840
UKube-1 26 Jul 02:27:27 02:31:37 46° 260° (W) 02:35:49 .
O/OREOS (USA 219) 26 Jul 02:30:44 02:34:10 22° 257° (WSW) 02:37:35 437.305
M-CUBED/EXP-1 PRIME 26 Jul 02:31:16 02:33:55 15° 313° (NW) 02:36:35 437.505
SPROUT 26 Jul 02:31:25 02:32:56 12° 275° (W) 02:34:27 437.525
AIST 2D 26 Jul 02:31:32 02:32:55 12° 302° (WNW) 02:34:19 435.315
BUGSAT 1 26 Jul 02:32:33 02:36:43 82° 103° (ESE) 02:40:47 437.445
NANOSAT C BR1 26 Jul 02:36:23 02:40:06 31° 296° (WNW) 02:43:48 145.865
EO-79 26 Jul 02:37:06 02:40:45 28° 297° (WNW) 02:44:21 145.935-145.965
Gurwin Techsat 1B 26 Jul 02:44:26 02:49:15 33° 95° (E) 02:54:01 435.225
BEESAT 26 Jul 02:47:14 02:51:43 42° 65° (ENE) 02:56:13 436.000
nSIGHT-1 26 Jul 02:51:58 02:54:48 28° 207° (SSW) 02:57:38 .
ITUPSAT 1 26 Jul 03:00:59 03:05:37 53° 68° (ENE) 03:10:17 437.325
DX 1 26 Jul 03:26:33 03:27:55 11° 275° (W) 03:29:17 434.975-435.025
RS-15 26 Jul 03:38:02 03:46:44 24° 261° (W) 03:55:11 29.354- 29.394
MOZHAYETS 4 26 Jul 03:38:42 03:43:16 81° 75° (ENE) 03:47:52
DUCHIFAT 1 26 Jul 03:46:03 03:46:52 10° 309° (NW) 03:47:41 145.980
ISS 26 Jul 03:47:46 03:49:37 14° 217° (SW) 03:51:27 437.550
Oscar 19 26 Jul 03:49:31 03:54:35 58° 292° (WNW) 03:59:39 437.125/150
ITAMSAT 1 26 Jul 04:04:31 04:08:39 23° 91° (E) 04:12:44 435.822/435.867
YUBILEINY 26 Jul 04:05:32 04:11:39 20° 46° (NE) 04:17:42 435.215
BUGSAT 1 26 Jul 04:09:05 04:11:31 16° 304° (NW) 04:13:57 437.445
KKS-1 26 Jul 04:12:44 04:16:33 28° 61° (ENE) 04:20:23 437.445
CUBESAT XI-V 26 Jul 04:16:19 04:20:41 45° 67° (ENE) 04:25:06 437.345
AO-7 26 Jul 04:19:01 04:26:38 37° 95° (E) 04:34:10 .
Gurwin Techsat 1B 26 Jul 04:24:16 04:29:23 48° 295° (WNW) 04:34:27 435.225
BEESAT 26 Jul 04:25:20 04:29:36 32° 264° (W) 04:33:54 436.000
STARS 26 Jul 04:39:41 04:43:14 24° 59° (ENE) 04:46:49 437.465
ITUPSAT 1 26 Jul 04:39:45 04:43:44 26° 267° (W) 04:47:43 437.325
MOZHAYETS 4 26 Jul 05:18:17 05:21:02 16° 273° (W) 05:23:48
PCSat 26 Jul 05:29:32 05:34:21 34° 115° (ESE) 05:39:14 145.827
Oscar 19 26 Jul 05:30:31 05:32:55 13° 313° (NW) 05:35:20 437.125/150
ITAMSAT 1 26 Jul 05:43:23 05:48:35 66° 291° (WNW) 05:53:43 435.822/435.867
KKS-1 26 Jul 05:48:37 05:52:56 46° 261° (W) 05:57:17 437.445
DOVE 4 26 Jul 05:51:34 05:55:30 21° 87° (E) 05:59:20 437.250
CUBESAT XI-V 26 Jul 05:54:18 05:58:15 28° 267° (W) 06:02:14 437.345
STRAND 1 26 Jul 05:56:54 05:59:57 16° 50° (NE) 06:03:00 437.568
YUBILEINY 26 Jul 06:01:53 06:10:38 63° 72° (ENE) 06:19:16 435.215
Gurwin Techsat 1B 26 Jul 06:06:21 06:08:09 12° 316° (NW) 06:09:57 435.225
AO-7 26 Jul 06:11:41 06:20:00 70° 298° (WNW) 06:28:16 .
STARS 26 Jul 06:14:57 06:19:18 54° 259° (W) 06:23:41 437.465
FO-29 26 Jul 06:25:46 06:26:23 10° 26° (NNE) 06:27:00 435.910
KAITUO 1B 26 Jul 06:30:55 06:31:33 10° 86° (E) 06:32:09 145.475/437.950
LilacSat-2 26 Jul 06:35:02 06:37:24 16° 89° (E) 06:39:47 437.200
SO-50 26 Jul 06:42:13 06:45:57 26° 118° (ESE) 06:49:40 436.795
XW-2F 26 Jul 06:46:55 06:49:36 18° 91° (E) 06:52:17 145.980 - 146.000
PCSat 26 Jul 07:12:12 07:17:34 58° 316° (NW) 07:22:58 145.827
XW-2D 26 Jul 07:15:59 07:19:32 38° 98° (E) 07:23:04 145.860 - 145.880
ITAMSAT 1 26 Jul 07:24:15 07:27:09 15° 312° (NW) 07:30:02 435.822/435.867
XW-2B 26 Jul 07:26:02 07:29:41 46° 99° (E) 07:33:20 145.730 - 145.750
DOVE 4 26 Jul 07:28:26 07:33:45 75° 287° (WNW) 07:38:54 437.250
STRAND 1 26 Jul 07:33:11 07:38:19 72° 71° (ENE) 07:43:28 437.568
CUTE-I 26 Jul 07:39:18 07:44:34 53° 100° (E) 07:49:47 437.470
XW-2C 26 Jul 07:43:24 07:47:10 73° 102° (ESE) 07:50:56 145.795 - 145.815
NUDT-PHONESAT 26 Jul 07:46:10 07:49:49 59° 101° (ESE) 07:53:28 437.300
HO-68 26 Jul 07:57:24 08:03:37 31° 92° (E) 08:09:49 435.675
YUBILEINY 26 Jul 07:59:11 08:07:04 39° 276° (W) 08:14:54 435.215
KAITUO 1B 26 Jul 08:02:24 08:06:08 89° 294° (WNW) 08:09:53 145.475/437.950
FO-29 26 Jul 08:02:43 08:08:57 27° 50° (NE) 08:15:08 435.910
AO-7 26 Jul 08:05:05 08:11:30 26° 321° (NW) 08:17:54 .
LilacSat-2 26 Jul 08:08:19 08:12:03 58° 288° (WNW) 08:15:48 437.200
UNISAT 6 26 Jul 08:19:53 08:20:27 10° 49° (NE) 08:21:01 437.425
XW-2F 26 Jul 08:20:23 08:24:00 48° 290° (WNW) 08:27:37 145.980 - 146.000
SO-50 26 Jul 08:21:36 08:26:06 65° 319° (NW) 08:30:36 436.795
CUBEBUG 2 26 Jul 08:24:40 08:28:05 23° 91° (E) 08:31:24 437.445
CUTE 1.7 + AOD 2 26 Jul 08:31:20 08:35:27 45° 99° (E) 08:39:32 437.475
SEEDS 26 Jul 08:41:07 08:45:04 38° 97° (E) 08:49:02 437.485
M-CUBED/EXP-1 PRIME 26 Jul 08:41:58 08:43:09 11° 42° (NE) 08:44:20 437.505
XW-2A 26 Jul 08:44:05 08:47:11 34° 97° (E) 08:50:17 145.665 - 145.685
XW-2D 26 Jul 08:50:30 08:53:35 24° 296° (WNW) 08:56:39 145.860 - 145.880
PCSat 26 Jul 08:57:46 09:02:05 23° 340° (NNW) 09:06:24 145.827
TIGRISAT 26 Jul 09:00:34 09:03:51 20° 58° (ENE) 09:07:05 435.000
XW-2B 26 Jul 09:00:47 09:03:38 20° 298° (WNW) 09:06:27 145.730 - 145.750
DOVE 4 26 Jul 09:07:17 09:10:35 17° 308° (NW) 09:13:52 437.250
STRAND 1 26 Jul 09:14:12 09:18:02 21° 270° (W) 09:21:54 437.568
XW-2C 26 Jul 09:18:45 09:20:53 15° 302° (WNW) 09:23:01 145.795 - 145.815
UWE-3 26 Jul 09:19:33 09:23:37 45° 98° (E) 09:27:36 435.000/436.395/437.385
CUTE-I 26 Jul 09:19:43 09:24:26 32° 300° (WNW) 09:29:06 437.470
AAUSAT CUBESAT 2 26 Jul 09:20:41 09:24:43 46° 99° (E) 09:28:45 437.432
NUDT-PHONESAT 26 Jul 09:20:58 09:23:20 16° 300° (WNW) 09:25:42 437.300
PRISM 26 Jul 09:25:10 09:28:34 26° 62° (ENE) 09:32:02 437.425
ZACube-1 26 Jul 09:30:22 09:34:10 34° 95° (E) 09:37:57 437.345
KAITUO 1B 26 Jul 09:38:02 09:39:34 12° 304° (NW) 09:41:05 145.475/437.950
HO-68 26 Jul 09:44:49 09:51:57 71° 294° (WNW) 09:59:03 435.675
FO-29 26 Jul 09:45:12 09:53:00 81° 71° (ENE) 10:00:51 435.910
UNISAT 6 26 Jul 09:51:45 09:56:13 51° 69° (ENE) 10:00:37 437.425
Oscar 11 26 Jul 09:53:54 09:58:01 41° 98° (E) 10:02:06 .
AO-7 26 Jul 09:58:11 10:01:27 13° 348° (NNW) 10:04:43 .
CUBEBUG 2 26 Jul 10:00:49 10:04:59 48° 291° (WNW) 10:09:01 437.445
SO-50 26 Jul 10:03:39 10:07:20 24° 341° (NNW) 10:11:01 436.795
CUTE 1.7 + AOD 2 26 Jul 10:07:34 10:11:05 26° 298° (WNW) 10:14:35 437.475
AO-73 26 Jul 10:09:34 10:13:45 73° 103° (ESE) 10:17:52 145.935
DELFI C3 26 Jul 10:11:21 10:14:13 18° 90° (E) 10:17:03 145.870
M-CUBED/EXP-1 PRIME 26 Jul 10:12:54 10:16:38 54° 63° (ENE) 10:20:42 437.505
SEEDS 26 Jul 10:17:00 10:20:41 29° 296° (WNW) 10:24:21 437.485
XW-2A 26 Jul 10:17:12 10:19:47 21° 296° (WNW) 10:22:20 145.665 - 145.685
EO-88 26 Jul 10:18:51 10:20:39 13° 88° (E) 10:22:25 145.990 - 145.960
NANOSAT C BR1 26 Jul 10:26:27 10:27:12 10° 51° (NE) 10:27:57 145.865
EO-79 26 Jul 10:26:38 10:28:02 11° 52° (NE) 10:29:27 145.935-145.965
TIGRISAT 26 Jul 10:35:28 10:40:06 73° 257° (WSW) 10:44:39 435.000
PCSat 26 Jul 10:43:35 10:47:23 19° 6° (N) 10:51:10 145.827
UWE-3 26 Jul 10:56:26 10:59:53 25° 298° (WNW) 11:03:18 435.000/436.395/437.385
AAUSAT CUBESAT 2 26 Jul 10:56:33 10:59:58 25° 298° (WNW) 11:03:22 437.432
PRISM 26 Jul 10:59:45 11:03:41 43° 261° (W) 11:07:40 437.425
ZACube-1 26 Jul 11:06:45 11:10:26 31° 296° (WNW) 11:14:06 437.345
UNISAT 6 26 Jul 11:29:25 11:33:11 24° 268° (W) 11:36:55 437.425
DUCHIFAT 1 26 Jul 11:30:02 11:33:44 30° 64° (ENE) 11:37:27 145.980
Oscar 11 26 Jul 11:30:19 11:34:01 28° 297° (WNW) 11:37:43 .
FO-29 26 Jul 11:32:07 11:38:44 30° 272° (W) 11:45:27 435.910
HO-68 26 Jul 11:33:25 11:38:36 22° 316° (NW) 11:43:47 435.675
POLYITAN 1 26 Jul 11:34:26 11:38:25 39° 66° (ENE) 11:42:22 437.675
AIST 2D 26 Jul 11:36:24 11:39:52 74° 75° (ENE) 11:43:21 435.315
DELFI C3 26 Jul 11:45:22 11:49:18 55° 289° (WNW) 11:53:14 145.870
SO-50 26 Jul 11:45:55 11:49:12 19° 6° (N) 11:52:30 436.795
AO-73 26 Jul 11:46:49 11:49:31 17° 303° (WNW) 11:52:11 145.935
AO-7 26 Jul 11:47:10 11:50:49 14° 16° (NNE) 11:54:28 .
QB50P2 26 Jul 11:47:20 11:51:31 54° 70° (ENE) 11:55:41 145.880/145.840
M-CUBED/EXP-1 PRIME 26 Jul 11:48:38 11:51:27 19° 264° (W) 11:54:25 437.505
LO-87 26 Jul 11:51:03 11:53:49 20° 92° (E) 11:56:33 145.935 - 145.965
EO-88 26 Jul 11:51:07 11:54:45 67° 287° (WNW) 11:58:22 145.990 - 145.960
BUGSAT 1 26 Jul 11:53:46 11:56:47 19° 58° (ENE) 11:59:48 437.445
NO-84 26 Jul 11:56:26 11:59:02 24° 140° (SE) 12:01:48 435.350 FM
Oscar 19 26 Jul 11:56:59 11:59:49 15° 49° (NE) 12:02:38 437.125/150
NANOSAT C BR1 26 Jul 11:57:53 12:02:03 58° 70° (ENE) 12:06:14 145.865
EO-79 26 Jul 11:58:47 12:03:00 64° 72° (ENE) 12:07:14 145.935-145.965
TIGRISAT 26 Jul 12:16:12 12:17:34 11° 276° (W) 12:18:57 435.000
AO-85 26 Jul 12:18:11 12:18:24 10° 111° (ESE) 12:18:38 145.980
PCSat 26 Jul 12:27:34 12:32:27 32° 31° (NNE) 12:37:18 145.827
SPROUT 26 Jul 12:33:26 12:34:59 12° 85° (E) 12:36:31 437.525
Gurwin Techsat 1B 26 Jul 12:33:45 12:37:31 20° 53° (NE) 12:41:17 435.225
ESTCUBE 1 26 Jul 12:49:10 12:53:36 51° 100° (E) 12:58:01 437.505/2401.250
DUCHIFAT 1 26 Jul 13:05:23 13:09:20 37° 263° (W) 13:13:18 145.980
POLYITAN 1 26 Jul 13:10:34 13:14:18 29° 265° (W) 13:18:02 437.675
AIST 2D 26 Jul 13:12:33 13:13:34 11° 273° (W) 13:14:34 435.315
LO-87 26 Jul 13:24:00 13:27:25 40° 291° (WNW) 13:30:48 145.935 - 145.965
QB50P2 26 Jul 13:24:23 13:27:37 21° 269° (W) 13:30:52 145.880/145.840
SO-50 26 Jul 13:26:43 13:30:53 34° 30° (NNE) 13:35:03 436.795
BUGSAT 1 26 Jul 13:27:31 13:31:44 65° 257° (WSW) 13:35:57 437.445
VELOX 1 26 Jul 13:28:19 13:32:22 32° 96° (E) 13:36:21 145.980
DX 1 26 Jul 13:30:19 13:32:10 12° 86° (E) 13:34:01 434.975-435.025
NO-84 26 Jul 13:32:54 13:36:08 87° 341° (NNW) 13:39:41 435.350 FM
Oscar 19 26 Jul 13:33:12 13:38:16 67° 70° (ENE) 13:43:23 437.125/150
AO-7 26 Jul 13:34:10 13:40:56 29° 42° (NE) 13:47:43 .
NANOSAT C BR1 26 Jul 13:35:01 13:38:07 19° 269° (W) 13:41:14 145.865
EO-79 26 Jul 13:36:17 13:39:11 18° 270° (W) 13:42:07 145.935-145.965
BEESAT 3 26 Jul 13:45:50 13:49:47 60° 128° (SE) 13:53:48 437.485
ITAMSAT 1 26 Jul 13:51:52 13:54:42 15° 48° (NE) 13:57:31 435.822/435.867
AO-85 26 Jul 13:54:06 13:58:01 68° 129° (SE) 14:01:56 145.980
SPROUT 26 Jul 14:07:17 14:11:36 84° 104° (ESE) 14:15:52 437.525
UKube-1 26 Jul 14:08:44 14:11:52 19° 91° (E) 14:15:00 .
PCSat 26 Jul 14:10:56 14:16:24 79° 234° (SW) 14:21:49 145.827
Gurwin Techsat 1B 26 Jul 14:11:29 14:16:49 89° 80° (E) 14:22:12 435.225
50 SAT 26 Jul 14:12:20 14:15:33 35° 98° (E) 14:18:45 437.505
ESTCUBE 1 26 Jul 14:26:26 14:30:10 26° 299° (WNW) 14:33:53 437.505/2401.250
BEESAT 2 26 Jul 14:29:15 14:33:13 59° 127° (SE) 14:37:14 435.950
DX 1 26 Jul 15:04:38 15:09:04 84° 102° (ESE) 15:13:28 434.975-435.025
VELOX 1 26 Jul 15:04:43 15:08:52 38° 295° (WNW) 15:12:59 145.980
SO-50 26 Jul 15:07:08 15:11:38 63° 231° (SW) 15:16:09 436.795
O/OREOS (USA 219) 26 Jul 15:10:09 15:13:26 20° 103° (ESE) 15:16:43 437.305
NO-84 26 Jul 15:10:24 15:13:48 60° 3° (N) 15:17:29 435.350 FM
Oscar 19 26 Jul 15:14:08 15:18:05 22° 270° (W) 15:22:03 437.125/150
BEESAT 3 26 Jul 15:24:01 15:27:39 30° 329° (NNW) 15:31:16 437.485
AO-7 26 Jul 15:24:18 15:32:40 80° 65° (ENE) 15:41:05 .
ITAMSAT 1 26 Jul 15:28:04 15:33:14 64° 69° (ENE) 15:38:26 435.822/435.867
MOZHAYETS 4 26 Jul 15:29:09 15:31:10 13° 85° (E) 15:33:10
AO-85 26 Jul 15:35:21 15:38:44 27° 332° (NNW) 15:42:11 145.980
UKube-1 26 Jul 15:43:59 15:48:18 61° 290° (WNW) 15:52:33 .
SPROUT 26 Jul 15:44:19 15:46:56 16° 304° (NW) 15:49:33 437.525
50 SAT 26 Jul 15:45:24 15:48:07 22° 297° (WNW) 15:50:49 437.505
Gurwin Techsat 1B 26 Jul 15:54:05 15:57:31 17° 273° (W) 16:00:59 435.225
PCSat 26 Jul 15:55:38 15:58:58 17° 254° (WSW) 16:02:18 145.827
BEESAT 2 26 Jul 16:07:36 16:11:15 31° 329° (NNW) 16:14:55 435.950
